Regional Weather Roundup
Issued by NWS

Home | Current Version | Previous Version | Text Only | Print | Product List | Glossary On
Versions: 1 2 3 4 5 6 7 8 9 10 11 12 13 14 15 16 17 18 19 20 21 22 23 24 25 26 27 28 29 30 31 32 33 34 35 36 37 38 39 40 41 42 43 44 45 46 47 48 49 50
000
ASUS44 KFWD 240715
RWRTX
NORTH TEXAS HOURLY WEATHER ROUNDUP
NATIONAL WEATHER SERVICE FORT WORTH TX
200 AM CDT SAT JUN 24 2017

NOTE: "FAIR" INDICATES FEW OR NO CLOUDS BELOW 12,000 FEET WITH NO
SIGNIFICANT WEATHER AND/OR OBSTRUCTIONS TO VISIBILITY.

TXZ118-119-240800-
DALLAS/FORT WORTH METROPLEX

CITY           SKY/WX    TMP DP  RH WIND       PRES   REMARKS
DFW AIRPORT    LGT RAIN  76  74  93 S15       29.94S
DALLAS LOVE    CLOUDY    74  72  93 S12G20    29.94S THUNDER
FTW MEACHAM    TSTM      75  73  93 S10       30.00R FOG
DAL-EXECUTIVE  TSTM      72  71  97 SE9       29.97R FOG
FTW-ALLIANCE   TSTM      76  74  93 SE14      29.97R
FTW-NAS-JRB      N/A    N/A N/A N/A MISG      29.92R
FTW-SPINKS       N/A     79  69  70 E26G39    29.97R
ARLINGTON      TSTM      71  70  96 N9G32     29.99R
GRAND PRAIRIE  CLOUDY    71  71 100 E8G37     30.04R VSB 1/2
ADDISON        CLOUDY    74  72  92 NE5       29.96F
MESQUITE       CLOUDY    71  69  96 SE8       29.97F
LANCASTER      TSTM      71  68  92 E9G23     29.98R
$$

TXZ091>094-102>105-117-120-121-131>134-240800-
NORTH CENTRAL TEXAS

CITY           SKY/WX    TMP DP  RH WIND       PRES   REMARKS
SHRMAN/DENISON CLOUDY    77  70  78 NE7       29.98F
GAINESVILLE    CLOUDY    78  66  68 NE12      30.00F
BOWIE          MOCLDY    79  65  63 NE8       29.96F
BRIDGEPORT     CLOUDY    81  68  65 E10       29.98R
DECATUR        CLOUDY    80  70  71 NE15G22   29.97R
DENTON         CLOUDY    79  73  82 E14       29.96S
MCKINNEY       CLOUDY    73  73 100 N5        29.95F
BONHAM         CLOUDY    73  73 100 E6        29.97F
GREENVILLE     CLOUDY    73  72  94 SE6       29.97F
ROCKWALL       CLOUDY    71  71 100 SE6       29.96F
TERRELL        TSTM      72  68  87 W5        29.97S
WAXAHACHIE     HVY RAIN  71  70  95 NE12G23   30.02R
CLEBURNE       CLOUDY    82  77  83 SE10      29.96R HX  91
GRANBURY       MOCLDY    85  75  71 SE6       29.94R HX  94
$$

TXZ083>090-098>101-113>116-127>130-139>142-154-155-240800-
WESTERN NORTH TEXAS

CITY           SKY/WX    TMP DP  RH WIND       PRES   REMARKS
WICHITA FALLS  MOCLDY    78  59  51 NE12      29.98F
WF-KICKAPOO    CLOUDY    79  65  62 NE10G18   30.00F
VERNON           N/A    N/A N/A N/A N18       30.06R THUNDER
ABILENE        CLOUDY    82  67  60 N6        29.95F
ABILENE-DYESS  MOCLDY    80  66  64 NW6       29.95F
GRAHAM         CLOUDY    82  72  71 NE9G18    29.94S
BRECKENRIDGE   CLOUDY    85  71  61 E5        29.93F HX  90
CISCO          CLOUDY    81  73  78 E7        29.96F
EASTLAND       CLOUDY    81  73  77 NE5       29.94F
MINERAL WELLS  CLOUDY    81  73  76 NE15      29.94R
STEPHENVILLE   CLOUDY    82  72  72 CALM      29.97S
COMANCHE       CLOUDY    81  73  76 SE6       29.95S
BROWNWOOD      CLOUDY    84  72  65 SE7       29.93F
COLEMAN        CLOUDY    82  62  51 W6        29.95F
$$

TXZ143>147-156>162-174-175-240800-
CENTRAL TEXAS

CITY           SKY/WX    TMP DP  RH WIND       PRES   REMARKS
WACO           MOCLDY    83  73  72 SE10      29.92R
WACO-MCGREGOR  CLEAR     82  73  74 S10       29.93R
HILLSBORO      PTCLDY    82  76  84 E7        29.95R
CORSICANA      CLEAR     83  78  85 S8        29.94F HX  93
MEXIA          CLEAR     80  76  87 S14       29.93F
HEARNE         CLEAR     79  77  94 SE5       29.96R
CAMERON        PTCLDY    81  74  80 S6        29.94R
TEMPLE         CLEAR     82  74  76 S14       29.94R
KILLEEN        LGT RAIN  81  73  78 S12       29.93S
KILLEEN-SKYLRK CLEAR     82  74  76 S12       29.94S
FORT HOOD      PTCLDY    80  73  77 S10       29.91S
HAMILTON       CLEAR     81  72  73 S9        29.95S
LAMPASAS       PTCLDY    82  74  77 S6        29.95R
$$

TXZ095>097-106>112-122>126-135>138-148>153-164>167-240800-
EAST TEXAS

CITY           SKY/WX    TMP DP  RH WIND       PRES   REMARKS
PARIS            N/A     74  73  97 S5        30.00R
SULPHUR SPRNGS   N/A     73  72  97 CALM      29.98F
MOUNT PLEASANT CLOUDY    73  73 100 N5        30.01R
GILMER         CLOUDY    71  69  95 NW5       29.99F
MINEOLA        TSTM      72  70  94 S7        29.95F
TYLER          TSTM      72  71  97 E23G38    30.02R FOG
LONGVIEW       TSTM      71  71 100 SE10      29.95F
MARSHALL       CLOUDY    70  66  88 W5        29.95F
PALESTINE      PTCLDY    80  77  89 SE5       29.95S
JACKSONVILLE   CLEAR     78  76  93 SE6       30.00R THUNDER
HENDERSON      TSTM      72  68  88 E13G22    30.02R
CENTER         CLOUDY    78  74  88 NW13G21   30.02R
NACOGDOCHES    PTCLDY    77  75  94 MISG      29.98R
LUFKIN         MOCLDY    78  76  93 CALM      29.97R FOG
$$

SUPPLEMENTAL OBSERVATIONS (NWS FORT WORTH AREA)

CITY           SKY/WX    TMP DP  RH WIND       PRES   REMARKS
DENISON DAM      N/A     79  70  73 NE6         N/A
CADDO GRASSLND   N/A     79  72  78 E2          N/A
PAT MAYSE LAKE   N/A     75  73  94 N3          N/A
GREENVILLE       N/A     72  68  88 NW1         N/A
CEDAR HILL       N/A     72  68  88 SE5G29      N/A
LBJ GRASSLAND    N/A     81  70  69 NE7G15      N/A
POSSUM KINGDOM   N/A     84  73  70 NE12        N/A  HX  91
GRANBURY         N/A     84  73  70 SE7         N/A  HX  91
COMANCHE         N/A     81  72  74 SE6         N/A
MCGREGOR         N/A     81  72  74 S12         N/A
TEMPLE           N/A     81  72  74 S5          N/A
LAKE LIMESTONE   N/A     81  75  83 CALM        N/A
ATHENS           N/A     82  77  83 E5          N/A  HX  91
$$

SUPPLEMENTAL OBSERVATIONS (NWS NORMAN AREA)

CITY           SKY/WX    TMP DP  RH WIND       PRES   REMARKS
GOODLETT         N/A     67  56  66 N20G29    30.09R
ODELL            N/A     66  61  85 N21       30.08R
CROWELL          N/A     76  55  47 N16       30.06R
KNOX CITY        N/A     79  54  41 N17       30.00F
MILLERS CREEK    N/A     81  66  61 NE15G22     N/A
$$

SUPPLEMENTAL OBSERVATIONS (NWS SAN ANGELO AREA)

CITY           SKY/WX    TMP DP  RH WIND       PRES   REMARKS
WEINERT          N/A     79  61  53 NE10      29.99F
HASKELL          N/A     80  66  62 NE17      29.99F
THROCKMORTON     N/A     81  71  73 NE12      29.97F
STAMFORD         N/A     83  72  68 NE17      29.97F
CLYDE            N/A     81  72  74 NE6       29.97F
HAMBY            N/A     82  68  61 N3          N/A
IVIE RESERVOIR   N/A     77  64  65 S1          N/A
COLORADO BEND    N/A     82  70  65 SW7G16      N/A
$$

SUPPLEMENTAL OBSERVATIONS (NWS SHREVEPORT AREA)

CITY           SKY/WX    TMP DP  RH WIND       PRES   REMARKS
CLARKSVILLE      N/A     73  70  88 E5          N/A
TEXARKANA        N/A     72  70  94 NW3         N/A
LINDEN           N/A     72  68  88 NE2         N/A
CADDO LAKE       N/A     72  70  94 CALM        N/A
GILMER           N/A     72  66  83 S2G20       N/A
HENDERSON        N/A     72  66  83 E14G23      N/A
LUFKIN           N/A     79  75  89 MISG        N/A
N SABINE NF      N/A     79  77  94 MISG        N/A
S SABINE NF      N/A     79  75  89 CALM        N/A
$$

SUPPLEMENTAL OBSERVATIONS ARE A COLLECTION OF AUTOMATED INSTRUMENTS
THAT ARE MAINTAINED BY A VARIETY OF FEDERAL AND STATE AGENCIES.
CERTAIN ELEMENTS...SUCH AS HUMIDITY VALUES AND SUSTAINED WIND
SPEEDS...MAY BE APPROXIMATED.





USA.gov is the U.S. government's official web portal to all federal, state and local government web resources and services.